Hauptseite
METAR-TAF:

METAR-TAF

Flughäfen :

Flughafen Morlaix

Morlaix, Frankreich

Breite: 48-36N, Länge: 3-49W, Höhe: 84 m

Beobachtung

Neuester Wetterbericht von vor 37 Minuten, um 11:00 UTC
Wind 16 kt aus Südwest
Temperatur 22°C
Luftfeuchtigkeit 69%
Luftdruck 1017 hPa
Sichtweite 10 km oder mehr
Durchbrochene Bewölkung in der Höhe von 2200 ft
Geschlossene Wolkendecke in der Höhe von 2800 ft

METAR: LFRU 191100Z AUTO 23016KT 9999 BKN022 OVC028 22/16 Q1017

Zeit: 13:37 (11:37 UTC)


TAF: fehlend

Wetterbeobachtungen und Prognosen von mehr als 4000 Flughäfen (METAR und TAF Bericht).

Die verfügbaren Stationen werden durch gelbe und rote Markierungen auf der Karte dargestellt.

Führen Sie die Maus auf sie, um den Namen der Station zu sehen.

Darauf klicken, um die Beobachtung von Wetterbeobachtungen und Prognosen zu sehen.

Um die Karte zu ändern : klicken Sie auf den grünen Tasten mit einem schwarzen Kreuz Zum Vergrößern, auf den grünen Button mit einem Gedankenstrich zu verkleinern, oder auf die grünen Pfeile für benachbarte Karten.


METAR-TAF: